Temp_Advection
nan nan nan nan nan nan nan nan nan nan nan nan nan nan nan nan nan nan nan nan nan nan nan nan nan nan nan nan nan nan nan nan nan nan nan nan nan nan nan nan nan nan nan
nan 1 1 0 1 1 0 -0 -0 -0 -0 -1 -1 -0 -1 -2 -2 -1 -0 0 -0 -1 -1 -1 -1 -0 -0 0 0 -0 1 1 1 -0 -0 0 1 0 0 0 0 0 nan
nan 1 1 1 1 0 0 0 -0 -0 0 0 -1 -1 -1 -2 -2 -1 -1 0 -0 -1 -1 -1 -1 -0 -0 -1 0 -0 1 -0 2 1 0 -1 0 1 1 1 0 0 nan
nan 0 1 1 1 1 0 -1 -0 -0 -0 -0 -0 -1 -0 -1 -2 -1 -1 -1 -0 -0 -1 -1 -1 -1 -1 -0 0 -1 0 0 1 1 1 -1 -1 0 1 1 1 0 nan
nan 0 1 1 1 1 -0 -0 -0 -0 -0 -0 -0 -0 -1 -1 -1 -1 -2 -1 -0 -1 -1 -0 -1 -1 -1 -1 -0 1 1 2 -0 1 -0 -0 0 -0 -0 1 1 1 nan
nan 0 0 1 1 1 0 0 -1 -1 -1 0 1 1 -1 -1 -1 -1 -2 -3 -1 -1 -0 -0 -1 -1 -1 -1 0 0 1 0 1 2 -1 -1 -1 -2 -1 0 1 1 nan
nan 1 1 0 1 1 0 -0 -0 -0 -1 -1 -2 -1 2 1 -1 -1 -1 -2 -2 -2 -1 -0 -1 -1 -1 -0 -1 -0 -0 1 1 1 1 -0 -1 -2 -2 -3 0 0 nan
nan 1 1 1 0 -0 0 0 0 -0 -0 0 -0 -1 -1 -0 1 0 -1 -1 -2 -2 -2 -1 -1 -1 -1 -1 -1 0 -1 0 0 0 1 -1 -1 1 -1 -3 -4 -2 nan
nan 0 1 0 0 -0 0 0 0 -0 -0 0 -0 -0 -0 -0 -0 -0 0 -0 -1 -1 -2 -1 -1 -1 -1 -1 -0 -2 -1 0 0 0 1 0 0 1 -0 -1 -3 -2 nan
nan 0 0 0 0 0 -0 -0 0 0 0 -0 -0 -0 -0 -0 -0 -0 -0 -0 -0 -1 -1 -1 -2 -2 -1 -1 -1 -2 1 -0 -0 0 0 3 -1 1 -0 0 1 1 nan
nan 1 0 -0 -0 0 -0 -0 0 1 0 -0 -0 -0 -0 -0 -0 -0 -0 -0 -0 -0 -0 -1 -2 -2 -2 -0 -1 -1 1 -1 0 0 0 1 0 0 -1 0 -0 -1 nan
nan 1 1 -0 -0 0 0 -1 -0 1 0 0 -0 -0 -0 -0 -0 -0 -0 -0 -0 -0 -0 -0 -1 -3 -2 -0 -1 -1 -2 -1 1 0 -0 -1 2 -1 0 -0 -1 -1 nan
nan 1 0 0 -0 0 0 -0 -0 0 0 -0 -0 0 0 -0 -0 -0 -0 -0 -0 -0 -0 -0 -1 -2 -1 -1 -1 -1 -2 2 0 0 -0 -0 0 -0 0 -2 -1 -0 nan
nan 1 1 0 0 1 -0 0 0 0 -0 -0 -0 0 1 -0 -1 -0 0 0 -0 -0 -0 -0 -0 -1 -1 -2 -2 -1 -1 -1 -0 0 -0 -0 -1 0 -2 -2 -1 -0 nan
nan 1 1 -0 0 0 0 0 0 1 0 -0 -0 0 1 1 -0 -1 -0 0 -0 -0 -0 -0 -0 -1 -2 -2 -2 -2 -1 -1 -0 -0 -0 -1 -0 -1 -1 -1 -1 -1 nan
nan 1 0 -0 0 1 0 0 0 1 0 -0 -1 -0 1 1 1 0 -0 0 0 -0 -0 -0 -1 -1 -2 -3 -2 -0 -0 -1 -0 -0 -0 -0 -0 0 -0 -0 -1 1 nan
nan 0 0 -0 0 1 0 0 0 0 0 -0 -1 -0 1 1 0 0 0 0 0 -0 -0 -0 -0 -0 -1 -3 -0 -0 -1 -2 -1 -1 -0 0 0 1 -0 1 0 1 nan
nan 0 1 0 0 1 0 -0 1 -0 0 -0 -1 -1 -0 0 0 1 0 0 1 -0 0 0 -0 -1 -3 -2 -0 -1 -1 -3 -2 -0 -1 -1 -0 -0 0 -1 0 1 nan
nan 0 1 1 0 1 0 -0 0 -0 -0 -0 -1 -1 0 -0 -0 0 1 1 1 0 0 -0 -0 -1 -2 -1 -1 -0 -2 -3 -1 -0 -1 -1 -1 -0 -0 -1 0 0 nan
nan 0 -0 1 1 0 0 0 -0 -0 -0 -0 -1 -0 0 0 -0 0 1 1 0 0 0 -0 -1 -1 -1 -1 -1 -1 -1 -3 -2 -0 0 -1 -1 -1 -0 0 -0 -1 nan
nan 1 -1 0 1 0 0 0 1 -0 -0 -0 -0 -0 1 0 0 0 1 0 0 0 -0 -0 -1 -1 -1 -1 -1 -1 -2 -5 -2 -0 -0 -1 -1 -1 0 0 -2 -1 nan
nan 0 -1 -1 1 1 0 -0 1 -0 -1 -0 -0 0 1 0 0 0 0 0 -0 -0 -0 -1 -1 -1 -1 -1 -1 -1 -3 -4 -1 -1 -0 -1 -1 -0 1 -1 -1 1 nan
nan -0 -0 -1 0 0 1 0 0 0 -1 -1 -0 0 0 0 0 0 0 -0 -0 -0 -1 -1 -1 -1 -1 -2 -2 -1 -4 -3 -0 -0 0 -1 -1 1 1 0 1 1 nan
nan 0 -0 -1 -1 0 1 1 0 0 -1 -2 -1 0 0 0 0 0 -0 -0 -0 -1 -1 -1 -1 -1 -1 -2 -3 -3 -4 -1 -1 1 1 -0 1 1 2 2 1 -0 nan
nan 0 0 -0 -0 1 0 0 0 0 -0 -2 -2 -1 0 0 0 0 -0 -0 -0 -0 -1 -1 -1 -1 -1 -3 -2 -4 -4 -1 -1 0 -0 -0 0 1 1 -1 -1 -0 nan
nan nan nan nan nan nan nan nan nan nan nan nan nan nan nan nan nan nan nan nan nan nan nan nan nan nan nan nan nan nan nan nan nan nan nan nan nan nan nan nan nan nan nan
Wind_Speed
15 18 25 26 27 26 25 27 32 37 43 48 51 51 50 49 44 35 27 24 21 20 23 25 21 22 22 31 37 20 57 60 58 57 52 46 45 38 33 29 32 33 30
12 15 21 25 26 27 28 30 37 44 49 50 49 45 44 43 41 33 27 24 23 21 23 27 25 24 24 26 29 21 45 62 63 61 51 35 44 37 32 34 33 34 31
15 17 22 25 26 27 28 35 45 52 50 43 41 40 40 41 38 33 29 25 23 23 24 29 28 26 25 26 37 22 43 58 63 66 58 36 28 45 37 38 34 35 33
16 20 23 26 26 24 29 44 51 44 40 39 39 38 39 40 39 37 34 28 25 23 26 29 30 29 27 25 24 26 29 62 61 65 52 47 54 48 34 42 38 35 33
21 22 24 27 24 24 39 48 38 40 39 39 37 36 39 40 39 39 36 33 28 27 26 29 31 31 30 30 24 34 33 54 66 71 53 41 54 44 46 46 44 38 37
20 22 22 26 29 31 48 39 38 38 38 37 38 39 40 40 41 40 38 36 32 30 26 31 31 33 33 33 30 23 26 38 61 65 64 58 56 55 53 44 46 42 43
20 21 22 24 28 42 41 39 39 39 37 37 37 37 40 42 43 42 40 38 36 33 31 29 31 33 34 34 35 26 21 43 41 60 64 61 58 63 57 50 45 43 42
21 24 23 30 37 40 40 41 40 39 37 37 39 39 39 40 42 39 40 41 39 36 33 30 31 33 35 35 38 31 23 34 30 51 62 66 59 62 60 60 55 40 41
22 24 28 37 38 40 40 40 41 40 37 36 37 37 37 38 41 39 37 41 40 37 35 33 33 33 36 36 37 38 34 33 27 46 52 72 63 60 59 57 60 61 39
29 31 36 36 38 40 41 41 39 38 37 35 36 38 38 39 40 40 39 37 39 40 37 34 34 33 38 37 37 41 33 29 31 45 50 63 66 59 61 58 57 53 45
35 37 39 35 40 41 42 42 40 38 37 34 33 35 36 36 35 37 39 38 40 38 37 35 35 34 39 38 37 41 45 29 24 44 53 56 68 61 61 59 56 54 46
38 39 37 40 42 42 43 41 40 37 34 34 33 33 33 33 35 36 36 37 39 38 38 34 34 35 38 41 40 41 46 45 32 38 56 56 67 63 61 61 56 55 51
37 39 38 42 43 44 44 41 39 36 34 34 34 34 33 32 34 34 35 35 36 36 35 35 37 37 39 41 42 41 48 48 38 28 55 61 64 64 63 61 56 54 52
38 39 44 44 45 44 44 41 39 36 34 34 34 34 34 32 33 33 33 33 33 35 34 35 36 34 37 39 42 42 46 51 47 31 52 62 65 67 66 62 57 54 52
41 42 45 45 46 46 44 41 38 35 33 34 34 36 34 33 31 30 31 31 31 34 34 35 37 38 39 43 44 44 45 53 48 45 49 60 63 67 68 64 60 54 52
40 43 44 45 46 47 44 41 39 36 33 34 34 31 32 30 30 29 29 30 32 35 35 36 35 35 41 41 44 45 45 50 50 47 43 57 61 65 67 65 59 53 50
39 43 43 44 46 47 42 41 39 36 34 33 31 30 32 32 30 28 29 31 32 35 36 35 36 38 37 41 40 41 41 50 51 38 44 58 61 65 63 63 59 52 47
39 40 41 44 45 44 40 38 37 34 34 32 30 27 25 29 27 28 30 30 31 35 36 35 36 39 41 41 38 38 39 48 47 35 49 58 62 66 62 63 59 56 49
35 36 38 42 44 42 39 39 37 35 33 33 30 25 22 26 27 30 30 30 31 34 36 33 33 35 35 39 36 35 35 48 44 32 52 58 61 62 59 65 62 57 49
34 35 36 40 41 40 38 38 37 36 36 34 30 22 21 21 18 23 30 28 31 32 30 30 33 33 35 38 35 34 39 44 49 37 45 54 55 53 53 59 60 57 53
34 34 36 39 40 38 38 38 37 36 35 34 27 22 20 14 11 11 19 24 28 26 27 29 31 33 33 38 36 33 38 50 46 33 42 55 55 54 50 52 55 53 51
33 33 37 39 40 37 37 37 36 36 34 33 24 25 16 10 7 8 14 20 22 23 26 28 28 30 32 33 35 32 38 51 39 28 44 56 54 48 48 47 43 48 52
33 34 37 39 40 38 37 37 37 37 38 28 21 19 11 8 6 7 14 17 20 23 26 28 29 30 30 35 36 30 34 50 34 33 38 53 51 46 44 45 46 47 51
32 35 37 39 42 40 38 36 38 37 37 27 19 16 13 9 9 7 12 16 20 24 27 27 28 28 28 29 37 40 37 51 39 24 32 50 48 45 44 48 51 51 51
30 33 36 39 41 41 40 39 39 39 37 28 21 14 12 15 11 12 13 17 21 24 27 27 27 28 29 34 39 43 48 53 41 19 31 45 49 50 51 52 48 47 46
30 32 34 37 39 39 40 41 40 40 35 33 24 15 15 18 19 13 12 17 18 21 20 23 23 25 25 28 30 35 44 41 25 27 45 53 51 48 52 49 50 47 44
Wind_Direction
284 255 245 252 258 265 274 286 299 307 309 311 312 312 312 311 311 308 304 297 288 277 263 259 244 237 221 209 225 215 188 181 182 178 175 174 173 173 180 182 175 177 177
275 257 247 252 257 266 276 291 298 304 308 307 308 305 304 302 302 301 299 292 286 272 261 259 247 238 231 206 207 211 175 179 186 177 167 165 168 173 180 177 176 181 179
270 259 253 257 261 268 284 298 306 308 305 305 303 300 297 297 296 295 292 286 280 271 257 257 250 240 232 220 209 212 186 174 186 185 172 157 171 168 176 178 182 186 180
267 264 263 263 265 276 296 310 308 303 302 302 301 297 294 293 294 294 291 286 278 268 258 253 250 242 234 220 213 209 187 191 175 182 180 174 174 168 167 179 183 189 186
263 270 275 273 272 279 310 313 307 306 303 301 296 293 290 290 290 289 287 283 275 268 255 252 249 243 237 224 207 202 193 191 187 184 176 176 178 177 169 171 182 187 190
270 274 283 277 270 283 311 312 310 305 302 299 298 295 291 289 287 284 284 280 274 268 255 251 247 244 236 228 216 202 199 190 192 183 181 183 177 174 173 172 180 180 185
285 287 284 301 285 302 313 316 312 306 303 297 293 288 286 285 285 283 280 276 274 268 260 250 246 241 238 229 224 206 221 191 192 187 182 189 187 186 181 174 173 177 181
305 299 291 308 310 314 318 317 312 306 303 295 289 283 284 281 280 277 278 277 272 268 262 252 245 238 236 230 224 213 216 198 190 191 187 190 193 192 187 188 173 172 178
307 309 306 313 317 319 319 318 314 309 304 295 291 284 279 275 275 272 269 271 273 269 265 254 246 236 234 229 223 216 204 211 192 199 188 195 196 196 192 196 192 184 176
314 314 319 322 322 322 321 320 318 310 302 291 286 283 280 276 273 270 267 262 265 269 265 258 249 237 233 228 224 216 193 208 198 205 189 189 198 198 195 202 199 193 191
319 321 322 324 325 326 323 323 320 309 300 295 292 286 282 277 271 265 265 259 261 260 260 257 249 240 231 227 223 219 206 202 192 206 192 189 198 197 198 203 203 197 200
320 322 324 327 328 327 326 324 319 311 306 301 295 287 283 278 271 267 262 260 256 254 256 252 248 241 231 228 221 218 211 200 199 205 195 193 198 201 205 204 204 207 206
319 325 327 327 330 329 328 323 318 313 306 301 298 291 283 276 269 265 260 255 253 251 249 246 246 240 230 229 220 219 214 201 204 205 203 198 199 202 204 206 207 208 208
324 328 327 329 331 330 329 324 318 315 312 308 302 294 287 278 273 271 265 256 250 249 246 240 239 235 231 227 220 219 216 209 202 203 209 202 205 205 208 207 209 209 210
325 325 327 331 331 331 330 326 321 318 317 311 305 300 295 284 275 266 261 255 247 246 243 239 237 235 231 225 218 217 216 208 206 201 210 206 207 211 213 210 209 211 209
320 324 328 331 332 332 332 328 324 321 321 314 307 305 300 289 275 262 254 250 243 241 238 235 233 231 229 223 217 216 216 209 206 201 211 209 210 213 213 217 217 214 210
318 325 329 331 334 333 333 328 323 325 322 317 314 312 312 297 277 263 252 242 235 236 233 231 227 226 226 222 217 215 217 210 205 202 210 207 210 212 215 217 216 218 219
319 325 330 331 335 335 334 327 328 327 326 321 319 317 309 301 281 263 249 240 230 231 230 227 227 226 228 221 216 213 214 211 199 201 212 209 209 210 215 214 213 219 213
322 327 332 332 336 337 337 331 331 332 328 325 319 314 304 300 281 264 248 237 224 226 228 225 223 222 224 218 213 211 211 211 199 194 200 209 209 210 214 217 217 212 212
327 330 332 333 339 341 339 335 336 331 332 328 321 313 300 300 279 262 245 230 222 224 221 221 221 217 218 213 208 206 209 209 204 194 191 210 210 210 213 220 218 216 209
327 332 334 335 343 343 342 339 338 337 333 333 324 318 294 301 289 254 230 216 216 214 216 216 217 215 213 212 208 204 211 206 203 194 193 208 215 211 215 219 221 226 222
328 334 335 338 345 347 347 343 343 342 339 333 331 338 291 295 261 240 217 216 212 211 213 213 211 213 213 212 204 209 210 202 199 196 197 207 211 206 215 217 220 221 219
330 334 337 340 344 350 350 346 347 349 342 333 330 342 299 277 251 226 214 209 209 208 207 209 207 209 211 209 206 195 214 199 199 194 195 208 213 206 212 216 217 224 226
331 334 339 340 343 349 352 353 352 351 340 334 329 341 289 273 251 232 213 211 211 208 206 206 206 207 207 206 206 206 204 199 202 180 186 211 216 215 212 212 216 218 221
330 336 339 341 344 346 353 356 357 354 343 339 331 318 333 271 257 242 221 214 217 211 208 207 210 203 198 205 205 205 202 203 205 200 195 210 211 206 200 204 212 219 218
331 334 340 343 345 348 352 356 358 356 349 342 333 332 313 332 247 239 228 220 226 217 215 202 214 213 203 201 204 209 205 199 207 216 198 201 202 204 206 207 209 214 212
Height
1516 1516 1518 1518 1518 1518 1517 1515 1511 1508 1504 1499 1493 1490 1486 1483 1484 1483 1481 1479 1477 1478 1478 1477 1478 1478 1478 1480 1486 1482 1485 1487 1501 1511 1526 1536 1542 1548 1555 1560 1564 1569 1573
1510 1510 1512 1513 1513 1511 1511 1509 1506 1501 1496 1492 1488 1483 1478 1475 1474 1473 1473 1473 1471 1471 1471 1472 1472 1473 1473 1475 1481 1481 1478 1478 1492 1502 1515 1527 1537 1545 1552 1558 1563 1567 1571
1506 1505 1506 1506 1507 1508 1506 1503 1498 1492 1487 1483 1478 1474 1470 1466 1465 1464 1463 1466 1464 1464 1463 1465 1466 1467 1467 1470 1474 1476 1477 1473 1488 1495 1497 1513 1524 1536 1548 1555 1559 1565 1569
1502 1501 1500 1501 1501 1502 1499 1496 1490 1484 1479 1474 1469 1466 1462 1458 1457 1454 1454 1456 1456 1457 1457 1457 1460 1460 1462 1464 1466 1466 1470 1473 1475 1491 1499 1506 1510 1519 1535 1549 1555 1561 1566
1497 1497 1496 1496 1497 1494 1491 1486 1480 1474 1469 1465 1461 1457 1453 1450 1447 1446 1444 1444 1446 1448 1450 1449 1451 1453 1455 1458 1460 1463 1469 1472 1474 1480 1491 1503 1512 1520 1522 1535 1547 1556 1563
1493 1492 1491 1490 1488 1486 1482 1476 1471 1465 1461 1456 1452 1447 1443 1441 1438 1436 1435 1434 1436 1437 1440 1442 1443 1446 1449 1451 1455 1459 1460 1465 1470 1471 1482 1489 1497 1507 1516 1529 1540 1547 1555
1489 1487 1485 1485 1483 1479 1472 1466 1461 1455 1451 1447 1443 1439 1434 1431 1428 1428 1426 1425 1425 1427 1430 1433 1435 1437 1441 1444 1447 1450 1458 1458 1463 1468 1472 1484 1491 1502 1513 1521 1533 1541 1551
1485 1484 1482 1479 1475 1468 1461 1456 1449 1442 1439 1436 1432 1430 1426 1422 1418 1418 1417 1415 1416 1417 1419 1422 1426 1429 1432 1435 1438 1441 1447 1452 1457 1465 1467 1476 1485 1497 1505 1509 1523 1539 1546
1480 1478 1477 1472 1464 1458 1452 1445 1439 1433 1427 1423 1420 1417 1415 1413 1409 1409 1409 1407 1407 1408 1409 1412 1414 1420 1423 1427 1431 1434 1442 1446 1448 1458 1463 1466 1479 1492 1501 1506 1512 1516 1533
1473 1470 1466 1460 1455 1448 1441 1434 1427 1419 1415 1412 1408 1405 1403 1402 1400 1398 1397 1398 1397 1399 1401 1403 1404 1409 1414 1418 1420 1424 1432 1439 1444 1452 1459 1460 1471 1486 1495 1500 1509 1517 1520
1463 1459 1456 1451 1445 1438 1432 1423 1415 1409 1404 1400 1396 1393 1391 1390 1388 1386 1386 1387 1389 1390 1391 1393 1395 1398 1403 1407 1412 1417 1424 1431 1438 1446 1452 1456 1464 1477 1488 1495 1504 1511 1518
1455 1451 1447 1442 1436 1429 1421 1414 1406 1399 1393 1389 1384 1380 1378 1378 1376 1375 1375 1376 1377 1378 1380 1383 1385 1389 1393 1397 1403 1409 1415 1424 1432 1438 1446 1452 1457 1470 1480 1488 1496 1505 1513
1446 1442 1438 1432 1426 1419 1411 1404 1396 1389 1384 1379 1374 1369 1366 1365 1364 1362 1363 1365 1367 1368 1371 1373 1376 1379 1383 1387 1395 1400 1407 1414 1424 1432 1438 1444 1451 1461 1472 1481 1489 1499 1507
1438 1434 1430 1425 1417 1409 1401 1393 1386 1381 1374 1369 1363 1357 1354 1352 1351 1350 1350 1352 1355 1357 1359 1362 1367 1371 1375 1380 1386 1393 1399 1407 1416 1425 1431 1438 1445 1453 1463 1473 1482 1492 1500
1432 1429 1422 1414 1408 1400 1391 1384 1376 1371 1365 1358 1352 1346 1342 1340 1339 1338 1338 1340 1343 1347 1350 1353 1357 1362 1367 1370 1378 1384 1390 1398 1408 1419 1425 1430 1438 1448 1456 1464 1474 1484 1494
1427 1421 1414 1408 1400 1391 1381 1373 1367 1361 1355 1349 1341 1336 1331 1329 1327 1327 1328 1329 1333 1337 1342 1344 1347 1352 1356 1363 1372 1379 1385 1392 1400 1411 1417 1423 1434 1441 1450 1460 1470 1478 1485
1423 1415 1409 1400 1393 1384 1375 1365 1359 1352 1345 1339 1332 1325 1320 1317 1315 1316 1317 1319 1323 1327 1330 1335 1339 1343 1347 1354 1363 1371 1379 1385 1394 1401 1407 1417 1425 1435 1444 1452 1463 1474 1482
1417 1410 1401 1393 1387 1378 1369 1359 1351 1343 1336 1329 1322 1317 1313 1307 1305 1305 1306 1308 1312 1316 1320 1325 1331 1335 1339 1346 1354 1362 1370 1374 1382 1389 1398 1408 1416 1427 1437 1446 1454 1466 1475
1410 1403 1395 1387 1380 1371 1361 1352 1343 1335 1328 1321 1314 1310 1305 1299 1295 1294 1296 1299 1302 1307 1311 1317 1322 1327 1332 1340 1347 1355 1363 1368 1375 1384 1392 1399 1409 1419 1430 1439 1448 1457 1469
1404 1396 1389 1381 1374 1365 1355 1346 1336 1328 1320 1313 1306 1301 1298 1292 1287 1286 1287 1291 1295 1300 1305 1309 1315 1321 1327 1333 1341 1350 1355 1361 1369 1376 1382 1391 1402 1411 1422 1432 1439 1448 1458
1397 1391 1385 1375 1368 1360 1349 1340 1331 1322 1314 1305 1299 1294 1290 1287 1283 1281 1283 1287 1291 1296 1299 1304 1310 1314 1320 1326 1333 1343 1348 1354 1363 1368 1374 1383 1395 1405 1415 1427 1432 1441 1455
1392 1386 1379 1371 1363 1355 1345 1335 1325 1316 1307 1299 1293 1288 1285 1282 1280 1279 1281 1283 1287 1290 1294 1300 1303 1309 1313 1319 1327 1335 1342 1351 1357 1364 1370 1379 1389 1398 1409 1419 1427 1437 1447
1389 1382 1375 1366 1359 1350 1343 1331 1321 1311 1302 1295 1289 1285 1282 1279 1277 1276 1278 1281 1284 1287 1291 1294 1298 1303 1308 1313 1320 1328 1338 1345 1351 1357 1366 1375 1385 1392 1402 1413 1421 1430 1436
1384 1378 1370 1362 1354 1347 1339 1329 1317 1307 1299 1291 1285 1282 1279 1276 1274 1272 1273 1276 1278 1282 1285 1289 1293 1298 1304 1309 1314 1323 1330 1339 1346 1350 1361 1371 1379 1388 1395 1404 1412 1421 1428
1381 1375 1367 1359 1351 1343 1334 1325 1314 1304 1296 1287 1282 1278 1276 1274 1272 1269 1268 1270 1273 1277 1280 1283 1288 1292 1296 1302 1309 1317 1324 1333 1344 1348 1355 1364 1372 1381 1387 1394 1404 1412 1421
1379 1372 1365 1357 1349 1340 1331 1322 1312 1303 1294 1285 1278 1273 1271 1268 1267 1267 1266 1267 1270 1273 1276 1280 1285 1290 1298 1302 1307 1314 1323 1334 1339 1346 1349 1356 1364 1373 1380 1388 1397 1405 1413